TimeCDT,TemperatureF,Dew PointF,Humidity,Sea Level PressureIn,VisibilityMPH,Wind Direction,Wind SpeedMPH,Gust SpeedMPH,PrecipitationIn,Events,Conditions,WindDirDegrees,DateUTC
12:15 AM,39.2,37.4,93,29.63,10.0,South,12.7,-,N/A,,Partly Cloudy,190,2013-04-28 05:15:00
12:35 AM,37.4,37.4,100,29.63,10.0,South,11.5,-,N/A,,Clear,190,2013-04-28 05:35:00
12:55 AM,39.2,37.4,93,29.62,10.0,SSW,8.1,-,N/A,,Clear,200,2013-04-28 05:55:00
1:15 AM,39.2,37.4,93,29.61,10.0,SSW,12.7,-,N/A,,Clear,200,2013-04-28 06:15:00
1:35 AM,39.2,35.6,87,29.59,10.0,SSW,17.3,-,N/A,,Clear,200,2013-04-28 06:35:00
1:55 AM,39.2,33.8,81,29.58,10.0,WSW,21.9,-,N/A,,Partly Cloudy,240,2013-04-28 06:55:00
2:15 AM,44.6,33.8,66,29.59,10.0,SW,23.0,31.1,N/A,,Clear,220,2013-04-28 07:15:00
2:35 AM,41.0,33.8,76,29.59,10.0,SW,19.6,-,N/A,,Clear,230,2013-04-28 07:35:00
2:55 AM,41.0,33.8,76,29.59,10.0,WSW,18.4,-,N/A,,Clear,240,2013-04-28 07:55:00
3:15 AM,41.0,32.0,70,29.59,10.0,WSW,21.9,35.7,N/A,,Clear,250,2013-04-28 08:15:00
3:35 AM,41.0,32.0,70,29.59,10.0,SW,21.9,-,N/A,,Clear,230,2013-04-28 08:35:00
3:55 AM,41.0,33.8,76,29.59,10.0,SW,18.4,-,N/A,,Clear,220,2013-04-28 08:55:00
4:15 AM,39.2,33.8,81,29.60,10.0,SW,19.6,-,N/A,,Clear,220,2013-04-28 09:15:00
4:35 AM,42.8,35.6,76,29.59,10.0,WSW,18.4,24.2,N/A,,Clear,240,2013-04-28 09:35:00
4:55 AM,44.6,35.6,71,29.60,10.0,WSW,20.7,-,N/A,,Scattered Clouds,240,2013-04-28 09:55:00
5:15 AM,41.0,35.6,81,29.59,10.0,WSW,15.0,-,N/A,,Scattered Clouds,250,2013-04-28 10:15:00
5:35 AM,46.4,33.8,62,29.58,10.0,West,21.9,25.3,N/A,,Partly Cloudy,260,2013-04-28 10:35:00
5:55 AM,48.2,35.6,62,29.58,10.0,West,10.4,-,N/A,,Scattered Clouds,260,2013-04-28 10:55:00
6:15 AM,41.0,35.6,81,29.57,10.0,WSW,8.1,-,N/A,,Mostly Cloudy,250,2013-04-28 11:15:00
6:35 AM,44.6,35.6,71,29.56,10.0,WSW,6.9,-,N/A,,Mostly Cloudy,240,2013-04-28 11:35:00
6:55 AM,41.0,33.8,76,29.56,10.0,SSW,11.5,-,N/A,,Partly Cloudy,210,2013-04-28 11:55:00
7:15 AM,41.0,35.6,81,29.58,10.0,WNW,10.4,17.3,N/A,,Clear,300,2013-04-28 12:15:00
7:35 AM,39.2,35.6,87,29.58,10.0,West,13.8,-,N/A,,Clear,270,2013-04-28 12:35:00
8:15 AM,41.0,33.8,76,29.59,10.0,West,11.5,-,N/A,,Clear,260,2013-04-28 13:15:00
8:35 AM,39.2,33.8,81,29.61,10.0,West,11.5,-,N/A,,Clear,280,2013-04-28 13:35:00
8:55 AM,41.0,33.8,76,29.61,10.0,WNW,17.3,-,N/A,,Clear,290,2013-04-28 13:55:00
9:15 AM,41.0,33.8,76,29.62,10.0,NW,18.4,25.3,N/A,,Clear,310,2013-04-28 14:15:00
9:35 AM,41.0,33.8,76,29.62,10.0,WNW,20.7,-,N/A,,Clear,300,2013-04-28 14:35:00
9:55 AM,41.0,33.8,76,29.63,10.0,WNW,18.4,-,N/A,,Clear,300,2013-04-28 14:55:00
10:15 AM,39.2,35.6,87,29.64,10.0,NW,17.3,-,N/A,,Clear,310,2013-04-28 15:15:00
10:35 AM,39.2,35.6,87,29.65,10.0,NW,17.3,-,N/A,,Partly Cloudy,310,2013-04-28 15:35:00
10:55 AM,39.2,35.6,87,29.66,10.0,NW,15.0,-,N/A,,Scattered Clouds,310,2013-04-28 15:55:00
11:15 AM,39.2,35.6,87,29.67,10.0,NW,18.4,-,N/A,,Mostly Cloudy,320,2013-04-28 16:15:00
11:35 AM,39.2,35.6,87,29.68,10.0,NW,15.0,-,N/A,,Mostly Cloudy,310,2013-04-28 16:35:00
11:55 AM,39.2,37.4,93,29.69,10.0,NW,13.8,-,N/A,,Partly Cloudy,310,2013-04-28 16:55:00
12:35 PM,39.2,35.6,87,29.71,10.0,WNW,15.0,-,N/A,,Clear,300,2013-04-28 17:35:00
12:55 PM,39.2,35.6,87,29.72,10.0,WNW,15.0,-,N/A,,Clear,300,2013-04-28 17:55:00
1:15 PM,41.0,35.6,81,29.72,10.0,NW,16.1,-,N/A,,Clear,310,2013-04-28 18:15:00
1:35 PM,41.0,35.6,81,29.73,10.0,NW,15.0,-,N/A,,Clear,310,2013-04-28 18:35:00
1:55 PM,41.0,35.6,81,29.73,10.0,NW,18.4,-,N/A,,Clear,310,2013-04-28 18:55:00
2:15 PM,41.0,33.8,76,29.74,10.0,NW,18.4,23.0,N/A,,Clear,310,2013-04-28 19:15:00
2:35 PM,41.0,32.0,70,29.75,10.0,NW,18.4,24.2,N/A,,Clear,310,2013-04-28 19:35:00
2:55 PM,41.0,33.8,76,29.76,10.0,WNW,13.8,18.4,N/A,,Clear,300,2013-04-28 19:55:00
3:15 PM,41.0,33.8,76,29.76,10.0,WNW,16.1,-,N/A,,Clear,300,2013-04-28 20:15:00
3:35 PM,41.0,32.0,70,29.77,10.0,NW,17.3,-,N/A,,Clear,310,2013-04-28 20:35:00
3:55 PM,41.0,32.0,70,29.77,10.0,WNW,18.4,25.3,N/A,,Clear,300,2013-04-28 20:55:00
4:15 PM,42.8,32.0,66,29.77,10.0,NW,20.7,26.5,N/A,,Clear,310,2013-04-28 21:15:00
4:35 PM,42.8,32.0,66,29.78,10.0,NW,23.0,26.5,N/A,,Clear,310,2013-04-28 21:35:00
4:55 PM,42.8,30.2,61,29.77,10.0,WNW,23.0,29.9,N/A,,Clear,300,2013-04-28 21:55:00
5:15 PM,42.8,32.0,66,29.78,10.0,WNW,19.6,-,N/A,,Clear,300,2013-04-28 22:15:00
5:35 PM,41.0,32.0,70,29.78,10.0,WNW,17.3,-,N/A,,Clear,300,2013-04-28 22:35:00
5:55 PM,41.0,30.2,65,29.79,10.0,WNW,19.6,25.3,N/A,,Clear,300,2013-04-28 22:55:00
6:15 PM,41.0,30.2,65,29.79,10.0,WNW,17.3,25.3,N/A,,Clear,300,2013-04-28 23:15:00
6:35 PM,41.0,32.0,70,29.80,10.0,WNW,18.4,23.0,N/A,,Clear,300,2013-04-28 23:35:00
6:55 PM,41.0,32.0,70,29.81,10.0,WNW,18.4,23.0,N/A,,Clear,300,2013-04-28 23:55:00
7:15 PM,41.0,32.0,70,29.82,10.0,WNW,12.7,-,N/A,,Clear,300,2013-04-29 00:15:00
7:35 PM,39.2,32.0,75,29.82,10.0,West,10.4,-,N/A,,Clear,280,2013-04-29 00:35:00
7:55 PM,39.2,32.0,75,29.82,10.0,WNW,11.5,-,N/A,,Clear,290,2013-04-29 00:55:00
8:15 PM,37.4,32.0,81,29.82,10.0,West,12.7,-,N/A,,Clear,280,2013-04-29 01:15:00
8:35 PM,37.4,32.0,81,29.83,10.0,WNW,15.0,-,N/A,,Clear,300,2013-04-29 01:35:00
8:55 PM,37.4,32.0,81,29.84,10.0,WNW,13.8,-,N/A,,Clear,300,2013-04-29 01:55:00
9:15 PM,35.6,32.0,87,29.84,10.0,WNW,11.5,-,N/A,,Clear,290,2013-04-29 02:15:00
9:35 PM,37.4,32.0,81,29.85,10.0,WNW,16.1,-,N/A,,Clear,290,2013-04-29 02:35:00
9:55 PM,37.4,32.0,81,29.86,10.0,WNW,16.1,-,N/A,,Clear,290,2013-04-29 02:55:00
10:15 PM,37.4,32.0,81,29.86,10.0,WNW,16.1,-,N/A,,Clear,300,2013-04-29 03:15:00
10:35 PM,37.4,32.0,81,29.86,10.0,WNW,13.8,-,N/A,,Clear,300,2013-04-29 03:35:00
10:55 PM,35.6,32.0,87,29.87,10.0,WNW,9.2,-,N/A,,Clear,300,2013-04-29 03:55:00
11:15 PM,35.6,32.0,87,29.87,10.0,WNW,9.2,-,N/A,,Clear,300,2013-04-29 04:15:00
11:35 PM,33.8,32.0,93,29.86,10.0,WNW,8.1,-,N/A,,Clear,290,2013-04-29 04:35:00
11:55 PM,32.0,32.0,100,29.86,10.0,West,9.2,-,N/A,,Clear,280,2013-04-29 04:55:00